Silver City, NM

1:58 PM MST on December 15, 2019 (GMT -0700)
Grant County

Weather History for KSVC - November, 2019

Change the Weather History Date:

Friday, November 22, 2019

  Actual Average (KDMN) Record (KDMN)
Temperature  
Mean Temperature 41 °F -  
Max Temperature 50 °F 64 °F 77 °F (2012)
Min Temperature 32 °F 30 °F 11 °F (1956)
Degree Days  
Heating Degree Days 24    
Moisture  
Dew Point 33 °F    
Average Humidity 79    
Maximum Humidity 97    
Minimum Humidity 51    
Precipitation  
Precipitation 0.00 in - - ()
Sea Level Pressure  
Sea Level Pressure 30.15 in    
Wind  
Wind Speed 8 mph ()    
Max Wind Speed 15 mph    
Max Gust Speed 24 mph    
Visibility 10.0 miles    
Events      
Averages and records for this station are not official NWS values.
T = Trace of Precipitation, MM = Missing Value Source: Averaged Metar Reports

Daily Weather History Graph

Daily Weather History Graph

Search for Another Location

Airport or City:

Astronomy

Nov. 22, 2019 Rise Set
Actual Time 6:48 AM MST 5:08 PM MST
Civil Twilight 6:22 AM MST 5:34 PM MST
Nautical Twilight 5:52 AM MST 6:05 PM MST
Astronomical Twilight 5:22 AM MST 6:34 PM MST
Moon 2:18 AM MST (11/22) 2:53 PM MST (11/22)
Length of Visible Light 11h 12m
Length of Day
10h 19m
Waning Crescent, 19% of the Moon is Illuminated
Nov 22
Waning Crescent
Nov 26
New
Dec 3
First Quarter
Dec 11
Full
Dec 18
Last Quarter

Hourly Weather History & Observations

Time (MST) Temp. Windchill Dew Point Humidity Pressure Visibility Wind Dir Wind Speed Gust Speed Precip Events Conditions
12:15 AM 37.4 °F 30.3 °F 36.1 °F 95% 30.12 in 10.0 mi NNW 10.4 mph - N/A   Scattered Clouds
12:35 AM 37.0 °F 30.4 °F 35.4 °F 94% 30.12 in 10.0 mi NW 9.2 mph - N/A   Scattered Clouds
12:55 AM 36.3 °F 29.5 °F 34.9 °F 95% 30.12 in 10.0 mi NW 9.2 mph - N/A   Clear
1:15 AM 35.4 °F 28.4 °F 34.2 °F 95% 30.13 in 10.0 mi NW 9.2 mph - N/A   Clear
1:35 AM 34.7 °F 27.5 °F 33.8 °F 97% 30.13 in 10.0 mi North 9.2 mph - N/A   Clear
1:55 AM 35.6 °F 28.6 °F 34.5 °F 96% 30.13 in 10.0 mi NW 9.2 mph - N/A   Mostly Cloudy
2:15 AM 36.7 °F 29.4 °F 34.7 °F 93% 30.13 in 10.0 mi NW 10.4 mph - N/A   Overcast
2:35 AM 35.6 °F 30.7 °F 33.8 °F 93% 30.14 in 10.0 mi NNW 5.8 mph - N/A   Mostly Cloudy
2:55 AM 34.7 °F 28.8 °F 32.9 °F 93% 30.14 in 10.0 mi NW 6.9 mph - N/A   Scattered Clouds
3:15 AM 33.8 °F 26.4 °F 32.0 °F 93% 30.13 in 10.0 mi NW 9.2 mph - N/A   Clear
3:35 AM 35.6 °F 29.2 °F 32.9 °F 90% 30.13 in 10.0 mi NNW 8.1 mph - N/A   Mostly Cloudy
3:55 AM 34.0 °F 28.0 °F 32.2 °F 93% 30.12 in 10.0 mi North 6.9 mph - N/A   Scattered Clouds
4:15 AM 33.6 °F 28.4 °F 31.8 °F 93% 30.12 in 10.0 mi North 5.8 mph - N/A   Clear
4:35 AM 34.0 °F 28.8 °F 32.0 °F 92% 30.12 in 10.0 mi North 5.8 mph - N/A   Clear
5:15 AM 33.8 °F 26.4 °F 31.6 °F 92% 30.12 in 10.0 mi NNW 9.2 mph - N/A   Clear
5:35 AM 33.1 °F 26.9 °F 31.6 °F 94% 30.13 in 10.0 mi NNW 6.9 mph - N/A   Clear
5:55 AM 32.5 °F 27.1 °F 31.3 °F 95% 30.13 in 10.0 mi NW 5.8 mph - N/A   Clear
6:15 AM 32.2 °F 27.7 °F 31.5 °F 97% 30.14 in 10.0 mi WNW 4.6 mph - N/A   Clear
6:35 AM 32.9 °F 28.5 °F 31.8 °F 96% 30.15 in 10.0 mi West 4.6 mph - N/A   Clear
6:55 AM 32.9 °F 29.8 °F 32.0 °F 96% 30.16 in 10.0 mi West 3.5 mph - N/A   Scattered Clouds
7:15 AM 34.7 °F 31.8 °F 33.1 °F 94% 30.17 in 10.0 mi NW 3.5 mph - N/A   Overcast
7:35 AM 35.4 °F 32.6 °F 33.8 °F 94% 30.17 in 10.0 mi NNW 3.5 mph - N/A   Overcast
7:55 AM 37.2 °F 32.6 °F 34.7 °F 91% 30.17 in 10.0 mi NNW 5.8 mph - N/A   Overcast
8:15 AM 39.6 °F 34.0 °F 35.2 °F 85% 30.18 in 10.0 mi NNW 8.1 mph - N/A   Mostly Cloudy
8:35 AM 41.0 °F 36.4 °F 35.4 °F 81% 30.18 in 10.0 mi NW 6.9 mph - N/A   Scattered Clouds
8:55 AM 40.5 °F 37.3 °F 34.9 °F 80% 30.19 in 10.0 mi WNW 4.6 mph - N/A   Mostly Cloudy
9:15 AM 42.3 °F 37.9 °F 35.6 °F 77% 30.19 in 10.0 mi WNW 6.9 mph - N/A   Overcast
9:35 AM 42.8 °F 38.6 °F 34.3 °F 72% 30.20 in 10.0 mi NW 6.9 mph - N/A   Overcast
9:55 AM 43.5 °F 38.3 °F 35.1 °F 72% 30.20 in 10.0 mi NW 9.2 mph - N/A   Overcast
10:15 AM 43.7 °F 41.1 °F 31.6 °F 63% 30.20 in 10.0 mi West 4.6 mph - N/A   Overcast
10:35 AM 44.8 °F 41.0 °F 32.0 °F 61% 30.19 in 10.0 mi WNW 6.9 mph - N/A   Overcast
10:55 AM 46.0 °F 41.9 °F 32.5 °F 59% 30.19 in 10.0 mi WNW 8.1 mph - N/A   Overcast
11:15 AM 46.9 °F - 32.0 °F 56% 30.18 in 10.0 mi WNW 8.1 mph - N/A   Mostly Cloudy
11:35 AM 48.6 °F - 33.4 °F 56% 30.17 in 10.0 mi West 6.9 mph - N/A   Mostly Cloudy
11:55 AM 49.3 °F - 33.8 °F 55% 30.16 in 10.0 mi WNW 10.4 mph 16.1 mph N/A   Overcast
12:15 PM 49.1 °F - 32.4 °F 53% 30.15 in 10.0 mi WNW 9.2 mph - N/A   Mostly Cloudy
12:35 PM 48.4 °F - 32.7 °F 55% 30.15 in 10.0 mi WNW 6.9 mph - N/A   Scattered Clouds
12:55 PM 46.8 °F - 32.0 °F 57% 30.14 in 10.0 mi NW 9.2 mph - N/A   Mostly Cloudy
1:15 PM 47.7 °F - 32.0 °F 55% 30.13 in 10.0 mi WNW 9.2 mph - N/A   Mostly Cloudy
1:35 PM 50.0 °F - 32.4 °F 51% 30.12 in 10.0 mi NW 12.7 mph 18.4 mph N/A   Mostly Cloudy
1:55 PM 49.3 °F - 32.5 °F 53% 30.12 in 10.0 mi WNW 15.0 mph 19.6 mph N/A   Scattered Clouds
2:15 PM 48.6 °F - 31.8 °F 52% 30.11 in 10.0 mi NW 13.8 mph - N/A   Scattered Clouds
2:35 PM 49.8 °F - 32.5 °F 51% 30.11 in 10.0 mi WNW 12.7 mph - N/A   Scattered Clouds
2:55 PM 49.8 °F - 33.3 °F 53% 30.11 in 10.0 mi West 9.2 mph - N/A   Scattered Clouds
3:15 PM 49.6 °F - 32.7 °F 52% 30.11 in 10.0 mi WNW 12.7 mph 16.1 mph N/A   Mostly Cloudy
3:35 PM 49.5 °F - 32.9 °F 53% 30.11 in 10.0 mi NW 13.8 mph 24.2 mph N/A   Scattered Clouds
3:55 PM 48.0 °F - 30.7 °F 51% 30.11 in 10.0 mi WNW 15.0 mph - N/A   Clear
4:15 PM 47.5 °F - 31.3 °F 53% 30.12 in 10.0 mi WNW 13.8 mph - N/A   Clear
4:35 PM 46.9 °F - 31.3 °F 55% 30.12 in 10.0 mi WNW 13.8 mph - N/A   Clear
4:55 PM 45.1 °F 39.9 °F 33.6 °F 64% 30.13 in 10.0 mi West 10.4 mph - N/A   Clear
5:15 PM 44.2 °F 38.8 °F 34.0 °F 67% 30.13 in 10.0 mi West 10.4 mph - N/A   Clear
5:55 PM 41.5 °F 36.4 °F 34.7 °F 77% 30.15 in 10.0 mi WNW 8.1 mph - N/A   Clear
6:35 PM 39.2 °F 33.0 °F 34.2 °F 82% 30.15 in 10.0 mi NW 9.2 mph - N/A   Unknown
6:55 PM 37.6 °F 33.1 °F 33.3 °F 84% 30.16 in 10.0 mi NNW 5.8 mph - N/A   Clear
7:15 PM 37.2 °F 30.0 °F 32.9 °F 84% 30.17 in 10.0 mi NNW 10.4 mph - N/A   Clear
7:35 PM 37.0 °F 30.4 °F 32.5 °F 84% 30.17 in 10.0 mi NNW 9.2 mph - N/A   Clear
7:55 PM 36.9 °F 30.1 °F 32.9 °F 86% 30.18 in 10.0 mi NNW 9.2 mph - N/A   Clear
8:15 PM 35.4 °F 28.4 °F 32.2 °F 88% 30.18 in - NNW 9.2 mph - N/A   Unknown
8:35 PM 36.7 °F 30.5 °F 32.9 °F 86% 30.19 in 10.0 mi NNW 8.1 mph - N/A   Clear
8:55 PM 35.8 °F 28.3 °F 32.4 °F 87% 30.19 in 10.0 mi North 10.4 mph - N/A   Clear
9:15 PM 34.2 °F 27.5 °F 31.5 °F 90% 30.19 in 10.0 mi North 8.1 mph - N/A   Clear
9:35 PM 34.2 °F 27.5 °F 32.0 °F 92% 30.20 in 10.0 mi North 8.1 mph - N/A   Clear
9:55 PM 33.4 °F 26.6 °F 31.6 °F 93% 30.20 in 10.0 mi North 8.1 mph - N/A   Clear
10:15 PM 32.2 °F 25.0 °F 30.6 °F 94% 30.20 in 10.0 mi North 8.1 mph - N/A   Clear
10:35 PM 32.4 °F 26.0 °F 31.1 °F 95% 30.20 in 10.0 mi North 6.9 mph - N/A   Clear
10:55 PM 32.4 °F 24.6 °F 30.9 °F 94% 30.21 in 10.0 mi NW 9.2 mph - N/A   Clear
11:15 PM 32.7 °F 25.0 °F 30.9 °F 93% 30.21 in 10.0 mi NW 9.2 mph - N/A   Clear
11:35 PM 32.2 °F 26.7 °F 30.2 °F 92% 30.21 in 10.0 mi NW 5.8 mph - N/A   Clear
11:55 PM 32.4 °F 26.0 °F 29.8 °F 90% 30.21 in 10.0 mi NW 6.9 mph - N/A   Clear